User: anonymous   Login
Location: Firdgum
(53.2488°N, 5.5615°E)
Time: 13:41:57
(UTC+00:00)
Language:

Cosmos 1954 Rocket - Orbit

View from above orbital plane
View from above orbital plane
View from above satellite
View from above satellite

Ground track
Ground track

The orbit data is extracted from the following two-line orbital elements,

1 19257U 88053B   20052.80553334 -.00000090 +00000-0 -21331-4 0  9993
2 19257 074.0468 215.4635 0021199 225.4049 235.2406 14.37457510659244
Epoch (UTC): 21 February 2020 19:19:58
Eccentricity: 0.0021199
inclination: 74.0468°
perigee height: 752 km
apogee height: 782 km
right ascension of ascending node: 215.4635°
argument of perigee: 225.4049°
revolutions per day: 14.37457510
mean anomaly at epoch: 235.2406°
orbit number at epoch: 65924

The dashed part of the orbit path shows where the satellite is in the earth's shadow,  

DLR